Location: Mexico
(19.4000°N, 99.1500°W)
Time: 00:47:16
(UTC-06:00)

ISS - Pass Details

Date: 25 July 2017
Orbit: 400 x 408 km, 51.6° (Epoch: 21 July)

Event Time Altitude Azimuth Distance (km) Brightness Sun altitude
Rises 04:44:37 0° 329° (NNW) 2,305 0.0 -19.2°
Reaches altitude 10° 04:46:44 10° 336° (NNW) 1,447 -1.0 -18.7°
Maximum altitude 04:49:52 44° 50° (NE) 561 -2.7 -18.1°
Drops below altitude 10° 04:52:59 10° 124° (SE) 1,448 -0.7 -17.4°
Sets 04:55:07 0° 131° (SE) 2,307 0.3 -17.0°
